Location: Unspecified
(36.5600°N, 136.6600°E)
Time: 09:33:45
(UTC+09:00)

ISS - Visible Passes

Search period start: 20 June 2024 00:00
Search period end: 30 June 2024 00:00
Orbit: 411 x 425 km, 51.6° (Epoch: 19 June)

Date Brightness Start Highest point End Pass type
(mag) Time Alt. Az. Time Alt. Az. Time Alt. Az.
20 Jun -2.4 03:49:15 10° SSW 03:52:14 31° SE 03:55:14 10° ENE visible
21 Jun -1.6 03:02:57 14° SSE 03:04:25 17° SE 03:06:42 10° E visible
22 Jun -3.7 03:49:52 12° SW 03:52:55 73° NW 03:56:16 10° NE visible
23 Jun -3.5 03:03:46 34° SSW 03:04:57 58° SE 03:08:14 10° ENE visible
24 Jun -2.3 02:17:34 28° ESE 02:17:34 28° ESE 02:19:58 10° ENE visible
24 Jun -2.1 03:50:55 10° W 03:53:45 26° NNW 03:56:37 10° NNE visible
25 Jun -2.9 03:04:12 26° W 03:05:35 41° NW 03:08:47 10° NE visible
26 Jun -3.5 02:17:50 65° NNE 02:17:50 65° NNE 02:20:48 10° NE visible
26 Jun -1.1 03:53:03 10° NW 03:54:42 13° NNW 03:56:21 10° N visible
27 Jun -1.4 01:31:23 20° ENE 01:31:23 20° ENE 01:32:37 10° ENE visible
27 Jun -1.5 03:04:17 12° WNW 03:06:21 18° NNW 03:08:44 10° NNE visible
28 Jun -2.1 02:17:46 26° NW 02:18:01 27° NNW 02:20:55 10° NNE visible
29 Jun -1.6 01:31:11 26° NNE 01:31:11 26° NNE 01:32:57 10° NE visible
